Location: Newark
(30.3239°N, 81.6375°W)
Time: 20:02:13
(UTC+00:00)

N. Korean satellite - Visible Passes

Search period start: 19 January 2020 00:00
Search period end: 29 January 2020 00:00
Orbit: 454 x 508 km, 97.2° (Epoch: 19 January)

Date Brightness Start Highest point End Pass type
(mag) Time Alt. Az. Time Alt. Az. Time Alt. Az.
19 Jan 6.9 11:31:34 10° N 11:34:55 40° WNW 11:38:17 10° SSW visible
19 Jan 10.2 23:36:55 10° WSW 23:38:01 11° W 23:39:08 10° WNW visible
20 Jan 6.6 11:05:56 10° NNE 11:09:29 79° E 11:13:05 10° S visible
21 Jan 8.5 10:40:48 10° NE 10:43:59 31° E 10:47:13 10° SSE visible
22 Jan 9.9 10:16:30 10° ENE 10:18:25 14° E 10:20:21 10° SE visible
22 Jan 7.7 11:48:51 10° NNW 11:51:43 23° WNW 11:54:38 10° SW visible
23 Jan 6.6 11:22:50 10° N 11:26:20 55° WNW 11:29:53 10° SSW visible
23 Jan 9.8 23:27:20 10° SW 23:29:21 15° W 23:31:21 10° WNW visible
24 Jan 7.2 10:57:21 10° NNE 11:00:53 57° E 11:04:28 10° S visible
25 Jan 9.0 10:32:23 10° NE 10:35:21 24° E 10:38:21 10° SSE visible
26 Jan 10.2 10:08:54 10° E 10:09:46 11° E 10:10:38 10° ESE visible
26 Jan 7.3 11:39:57 10° NNW 11:43:09 30° WNW 11:46:23 10° SW visible
27 Jan 6.5 11:14:08 10° N 11:17:44 76° WNW 11:21:23 10° SSW visible
27 Jan 9.6 23:18:08 10° SW 23:20:39 19° W 23:23:12 10° NW visible
28 Jan 7.9 10:48:47 10° NNE 10:52:15 42° E 10:55:45 10° S visible
